Wind_Speed
20 20 21 21 22 22 22 23 24 22 21 21 22 23 23 24 23 7 11 6 8 14 13 10 10 10 10 13 9 15 14 9 10 8 10 8 6 7 4 11 3 3 7 19 21
21 21 23 23 23 22 22 23 24 23 23 22 22 22 24 25 16 17 9 10 9 19 16 14 10 9 11 8 5 10 12 10 10 10 10 8 1 1 3 11 7 7 9 22 22
22 22 24 24 24 24 23 23 23 23 23 22 22 22 22 22 12 4 7 8 12 19 14 14 8 10 15 9 7 9 11 11 9 11 11 10 6 4 5 6 13 12 13 18 19
22 23 24 24 25 25 24 24 25 24 24 23 23 22 20 7 5 5 1 8 14 18 14 14 12 13 16 13 3 10 14 11 10 10 9 10 10 3 3 5 7 11 17 18 15
22 24 25 25 25 25 25 26 25 26 24 24 23 19 11 9 9 2 5 12 21 15 16 14 14 13 17 14 11 13 14 14 15 9 8 9 5 7 3 4 4 14 17 18 16
24 25 26 26 26 26 26 26 26 26 25 24 19 14 10 15 3 6 12 19 18 17 17 15 12 11 14 17 15 16 15 19 19 4 3 9 12 4 6 6 9 13 17 17 17
25 26 27 28 28 28 27 26 26 26 24 21 15 6 12 15 1 9 15 19 17 16 13 14 15 13 16 15 16 13 17 18 16 5 9 10 17 12 7 7 10 13 15 16 15
25 26 27 29 29 29 28 27 26 24 21 15 8 6 11 3 8 12 17 17 16 13 14 7 9 14 18 16 21 18 19 17 18 3 9 6 10 10 5 8 9 12 15 15 15
26 26 27 28 29 30 30 27 25 21 12 7 5 9 17 7 13 18 20 18 17 15 14 9 12 15 16 14 17 17 16 17 21 11 6 12 12 6 5 7 9 11 14 15 14
27 27 27 29 28 29 29 24 21 14 7 8 13 9 18 12 13 16 23 21 15 15 14 13 13 15 14 13 15 16 19 18 14 9 7 12 15 5 3 7 10 12 13 15 15
27 28 28 28 30 25 23 11 8 7 14 15 6 13 3 8 6 12 16 19 17 15 17 19 15 16 17 16 13 15 14 17 15 12 13 15 15 14 1 8 9 12 13 14 15
27 28 29 28 28 14 11 9 6 8 11 17 21 21 22 6 7 15 20 17 17 19 19 18 17 16 16 9 10 13 15 16 15 15 15 15 17 10 4 7 7 12 13 14 15
27 28 29 28 18 6 12 6 6 12 8 20 22 23 21 23 21 18 18 21 17 20 18 18 18 5 10 10 15 16 17 15 15 13 12 15 16 16 11 7 6 10 10 14 15
28 29 28 32 7 15 7 3 9 8 7 19 22 21 20 17 23 26 25 21 22 21 18 18 16 18 12 13 16 17 16 16 11 10 12 16 15 18 14 12 9 7 9 12 14
28 30 28 19 15 9 8 12 11 6 7 9 25 10 18 22 19 24 28 19 25 20 16 17 15 13 15 17 18 17 14 8 12 13 16 19 11 10 11 11 12 10 6 6 14
28 28 30 9 12 14 11 12 10 8 12 11 7 13 18 21 24 6 18 25 20 24 20 21 19 11 14 13 15 13 9 14 17 14 14 17 17 12 12 15 4 11 5 8 10
30 29 25 13 8 7 12 9 8 11 13 24 13 15 22 24 26 23 18 21 20 19 23 25 21 17 14 13 11 14 14 12 13 12 12 11 13 9 10 7 2 4 8 9 11
34 27 13 12 8 9 11 9 17 15 23 9 9 14 19 22 21 30 26 22 26 27 18 21 22 22 19 20 17 17 16 13 13 11 10 12 9 10 4 3 3 3 6 10 13
32 15 13 9 7 9 8 13 17 15 20 10 18 13 19 21 11 18 22 26 27 26 25 22 23 22 26 23 20 20 18 17 19 17 10 10 4 12 12 7 7 9 9 12 13
22 16 13 5 5 9 9 17 19 23 7 8 14 18 18 21 16 21 16 21 23 24 24 23 26 19 12 11 19 22 16 13 12 16 16 12 9 7 9 7 9 8 13 14 15
11 6 6 4 8 8 11 16 19 25 5 13 18 18 17 15 9 14 19 20 12 21 19 21 20 19 10 12 17 12 16 15 17 14 13 13 11 8 4 4 4 8 12 14 15
10 6 5 6 7 9 13 18 17 16 12 13 15 16 17 15 9 18 15 8 3 13 13 19 14 12 17 19 19 21 19 20 13 17 13 12 13 5 3 10 4 6 10 13 13
5 9 5 7 8 10 11 14 13 13 16 18 16 18 17 15 13 17 17 11 3 10 6 14 13 13 17 17 13 10 18 10 19 15 16 10 7 9 12 10 7 3 10 10 8
5 4 6 6 11 9 13 8 13 16 15 18 18 17 17 16 14 12 12 3 0 7 11 5 10 14 16 18 14 22 19 17 16 12 13 15 16 13 9 9 8 5 11 10 7
5 2 5 3 6 8 8 13 13 12 10 13 11 19 18 17 17 16 15 18 9 6 5 7 12 13 18 18 15 20 21 22 21 17 16 5 12 12 13 10 11 9 7 8 9
6 5 9 11 11 9 6 7 16 13 14 14 13 16 16 18 18 16 17 13 13 13 11 7 9 11 12 16 12 17 11 12 16 19 17 21 11 3 8 8 14 12 9 5 3
7 13 7 10 10 9 5 8 11 13 14 14 17 9 13 8 11 17 17 12 4 9 3 5 8 7 15 17 15 15 14 14 14 11 8 4 14 10 9 12 12 10 10 8 6
Wind_Direction
5 1 360 358 356 355 353 350 350 348 349 345 343 339 334 328 325 282 250 262 196 188 169 180 204 236 248 262 247 277 269 31 24 13 342 82 345 110 38 125 147 143 65 124 143
3 1 358 356 353 351 347 346 344 344 343 340 338 337 328 325 312 260 229 248 234 183 177 185 208 222 250 255 256 277 310 23 6 356 345 334 17 102 259 139 153 130 116 127 150
0 358 355 354 349 345 343 340 339 338 337 334 332 332 323 324 278 147 175 230 214 188 197 213 272 242 276 261 295 305 307 324 335 9 322 333 278 170 165 241 159 167 156 149 159
356 355 352 349 345 340 338 336 334 332 331 328 328 327 321 302 309 87 231 208 183 183 215 223 247 248 261 280 264 287 306 299 323 316 326 351 336 6 320 347 70 145 156 160 169
353 351 348 345 341 337 334 332 329 327 325 324 324 323 324 248 263 116 141 159 170 192 220 220 239 256 268 274 298 270 281 308 302 308 346 320 244 4 331 46 131 130 154 167 178
352 348 345 342 337 333 331 327 325 322 320 318 318 316 259 270 98 140 152 164 185 204 214 231 250 279 293 281 279 294 305 294 285 321 239 293 306 218 118 123 146 151 162 176 183
350 347 345 341 334 330 326 322 321 317 315 314 312 292 269 260 247 179 178 185 199 212 229 232 260 268 269 274 266 294 275 277 274 241 288 310 283 287 86 149 155 170 171 179 183
350 347 344 340 334 328 322 319 317 311 310 311 304 244 269 242 214 193 191 201 214 225 249 279 255 266 271 282 275 268 269 269 267 162 262 279 301 112 118 150 173 183 179 183 181
350 345 343 340 335 329 320 316 310 302 296 295 267 230 269 161 209 212 204 206 207 224 227 245 255 253 253 241 257 249 257 256 263 162 292 278 301 215 162 155 181 189 189 190 176
348 345 341 339 335 330 322 313 298 281 273 253 258 273 234 232 209 218 209 218 219 214 217 222 235 243 233 245 249 246 239 238 234 268 233 264 281 285 127 250 193 202 198 195 183
347 344 341 338 334 333 331 323 236 197 224 247 217 233 135 226 211 217 201 202 228 229 221 212 235 239 243 248 261 291 297 287 302 301 285 276 275 283 354 259 220 192 198 201 196
346 343 340 336 332 332 319 301 31 335 295 269 258 264 260 207 265 222 186 201 208 226 223 241 229 253 267 281 294 266 260 265 268 266 267 279 259 263 229 265 254 194 204 204 193
342 341 338 335 331 317 314 317 320 329 261 268 244 239 233 229 239 240 198 216 214 224 235 236 243 236 243 230 246 252 259 269 276 291 263 250 268 265 201 223 228 248 210 190 191
339 338 340 336 295 329 300 325 320 320 272 259 219 231 235 232 232 231 234 218 228 242 241 250 232 259 221 243 255 260 244 249 275 266 260 221 253 241 213 192 191 223 209 186 187
336 336 334 338 305 298 348 316 312 255 265 235 218 187 209 208 225 220 219 219 234 229 240 249 227 244 254 258 249 256 280 262 262 271 267 262 236 281 182 217 207 190 190 204 180
332 332 328 338 272 272 299 305 274 232 244 258 187 199 220 208 230 228 202 217 226 239 248 244 263 235 247 252 243 251 254 254 249 252 253 236 252 234 201 217 205 107 176 185 186
330 326 309 281 265 309 302 270 226 240 232 258 242 223 213 223 220 222 197 211 221 225 236 245 231 235 242 259 221 224 241 246 234 227 239 244 214 270 312 346 196 320 161 183 182
328 320 296 239 269 277 268 229 243 242 244 285 316 279 231 221 229 215 227 226 214 229 236 229 238 226 220 227 246 214 241 254 260 251 280 145 219 236 231 301 148 187 158 172 184
332 316 263 260 244 233 241 226 231 255 277 286 289 251 261 239 255 228 237 230 236 218 235 250 248 238 220 213 226 244 239 239 267 279 277 264 231 159 223 238 206 185 172 177 180
325 302 262 171 220 220 235 248 260 259 311 311 265 266 259 252 199 235 227 234 240 236 236 237 252 252 186 211 238 232 240 231 247 259 277 264 250 251 175 210 211 164 191 178 178
299 275 101 212 199 223 236 241 241 260 269 267 277 282 281 289 314 265 236 240 226 235 230 222 239 236 171 197 222 203 241 250 264 235 252 243 248 80 106 200 21 171 189 175 182
290 265 111 172 225 230 240 242 264 286 260 230 268 288 300 312 304 290 277 298 85 272 227 236 234 236 219 202 221 240 212 221 241 243 271 294 295 336 111 85 71 138 160 167 177
285 291 155 222 253 244 225 257 273 271 263 259 245 251 261 275 280 267 287 76 24 246 249 230 234 243 243 244 198 242 256 232 222 245 270 265 268 54 81 81 84 150 148 138 161
282 276 173 204 270 290 299 273 253 237 254 275 275 268 261 259 258 274 286 236 291 335 6 323 246 231 250 228 236 202 228 240 244 236 236 242 260 119 106 77 57 98 133 153 172
240 273 8 272 247 258 283 310 310 287 220 253 254 246 255 253 252 258 252 280 185 137 244 243 248 251 257 274 266 277 202 221 232 235 252 154 93 13 57 61 65 68 123 150 176
298 332 355 288 277 269 254 261 294 277 276 267 233 266 243 236 249 254 255 268 270 185 237 228 258 273 257 253 246 257 251 261 246 217 233 259 108 195 106 79 71 65 69 103 194
347 292 266 292 250 238 211 261 290 319 286 247 272 271 262 273 257 248 262 285 326 303 261 286 295 227 247 251 215 238 243 228 248 235 257 357 84 107 107 79 60 51 49 47 30
Height
828 825 822 819 817 814 811 808 805 803 800 797 793 788 785 780 778 776 770 767 769 770 773 774 774 771 767 758 749 742 759 755 754 752 742 719 730 723 721 733 737 739 738 744 761
829 826 822 819 816 813 810 807 804 802 798 794 792 789 784 779 775 770 766 767 767 769 773 771 767 765 758 750 745 748 748 751 734 730 736 724 727 723 732 732 744 744 744 752 760
828 825 822 819 815 812 809 806 803 800 798 794 791 788 783 779 772 756 762 764 765 767 768 766 762 761 758 744 743 742 755 737 731 726 722 724 720 716 727 735 727 742 747 752 758
828 825 821 817 814 811 808 805 801 798 795 793 789 786 782 780 778 759 761 761 764 768 767 763 761 762 758 754 737 758 738 734 727 721 723 726 717 722 722 720 718 725 740 749 755
829 825 821 817 813 809 806 802 799 796 793 790 787 785 782 772 758 758 760 763 767 768 764 760 760 757 763 748 742 750 738 731 723 719 723 721 721 725 724 714 719 725 739 746 749
829 825 821 816 812 808 804 801 797 793 790 788 785 784 782 776 760 759 762 765 766 765 761 758 755 749 755 753 752 739 741 736 724 720 720 729 720 720 722 717 722 728 737 740 742
828 824 820 815 811 806 802 798 794 790 787 785 782 781 775 765 759 762 763 764 764 761 757 755 754 755 748 751 737 739 753 737 727 719 725 720 729 748 716 718 726 729 732 735 739
828 823 819 814 809 804 798 794 790 786 784 782 780 781 768 757 758 760 761 762 761 759 757 754 755 752 751 742 744 753 746 759 723 721 719 727 747 718 713 721 728 728 730 733 738
827 821 817 813 807 802 795 790 786 782 781 780 779 775 764 754 756 755 755 754 756 756 756 756 755 753 748 760 765 753 767 754 738 716 727 732 742 714 709 717 726 727 730 734 739
828 821 816 812 806 800 792 786 780 778 777 779 776 776 751 748 743 747 751 752 748 751 754 756 755 759 753 759 779 761 753 741 744 728 725 735 735 713 711 715 720 725 729 733 738
828 821 816 811 805 799 791 783 776 775 772 758 747 749 740 743 746 745 744 748 746 747 763 750 763 765 750 738 740 742 749 751 734 724 735 737 736 720 713 714 716 723 728 731 734
826 820 815 809 803 798 794 784 788 791 777 753 746 743 739 742 747 738 739 747 749 760 747 754 761 742 733 736 746 752 757 754 738 726 732 734 734 713 715 715 711 716 722 727 730
825 819 814 806 801 797 795 788 791 788 778 748 736 735 733 737 741 735 732 735 741 751 746 753 740 727 736 747 755 751 755 750 748 731 722 734 740 727 713 714 712 710 709 718 725
825 819 814 805 804 798 788 792 790 788 783 745 729 724 725 723 735 726 722 730 735 744 737 738 725 733 741 752 744 755 729 734 740 749 761 724 764 720 714 716 715 711 710 713 721
823 818 813 812 808 796 794 793 790 787 800 722 714 707 709 727 721 716 715 718 738 734 735 740 735 739 747 742 732 746 723 734 738 746 744 735 744 725 710 721 710 708 711 711 717
821 816 812 810 806 799 795 793 789 793 790 734 712 720 724 718 715 708 709 711 713 729 723 726 709 719 728 722 725 723 733 738 735 737 758 735 734 728 718 713 704 703 711 714 718
816 812 809 809 797 796 795 789 792 789 736 739 726 716 717 721 718 714 722 728 737 752 750 732 726 715 717 734 722 732 745 768 767 756 756 710 728 721 700 696 700 704 710 715 719
812 805 801 800 797 798 793 789 793 754 747 716 721 710 719 707 707 709 718 727 715 721 733 744 752 722 713 727 735 734 738 756 775 755 737 711 744 722 693 690 693 705 704 715 719
806 799 795 794 795 796 790 787 772 755 732 733 726 735 729 713 708 707 713 716 707 706 736 735 733 697 699 704 716 733 739 717 738 728 741 721 708 696 689 695 692 705 710 716 718
809 797 787 790 793 792 787 782 757 740 734 739 755 735 733 718 716 717 710 700 703 692 691 713 738 698 697 701 703 715 707 744 735 771 770 734 727 721 705 704 694 702 708 712 715
808 787 786 789 791 784 781 766 755 739 741 753 748 739 726 722 712 713 706 694 688 691 685 698 712 715 700 717 720 723 730 722 715 723 747 753 731 685 698 691 698 698 701 708 714
804 786 785 788 785 767 767 757 752 744 736 744 743 739 737 726 729 722 712 696 688 689 705 695 706 729 712 694 694 696 709 716 739 748 728 729 727 676 683 686 691 689 698 701 707
801 784 781 785 776 759 749 753 746 749 747 744 744 739 734 739 747 728 710 696 698 700 705 696 714 734 728 706 691 709 702 699 705 714 732 742 732 679 683 690 697 695 699 704 710
806 780 770 778 766 768 760 754 755 743 748 742 739 734 736 741 731 737 720 702 702 698 711 702 708 721 727 715 695 712 710 702 708 727 725 720 712 703 705 707 704 701 701 709 714
799 780 775 770 768 761 759 760 759 751 739 739 742 741 741 747 740 734 723 712 705 719 709 706 726 710 704 698 703 696 696 700 708 708 721 714 731 757 711 717 711 706 705 713 715
800 790 780 775 769 769 768 768 762 747 741 740 741 736 727 739 736 737 723 718 714 702 709 702 725 710 714 693 697 701 691 691 692 695 701 697 730 717 717 714 712 715 714 716 718
806 804 798 777 763 762 758 764 757 749 741 733 728 729 729 723 716 714 707 707 705 713 712 718 719 723 729 701 699 716 698 692 691 687 693 718 714 711 721 722 724 724 721 722 720